Regional Weather Roundup
Issued by NWS

Home | Current Version | Previous Version | Graphics & Text | Print | Product List | Glossary On
Versions: 1 2 3 4 5 6 7 8 9 10 11 12 13 14 15 16 17 18 19 20 21 22 23 24 25 26 27 28 29 30 31 32 33 34 35 36 37 38 39 40 41 42 43 44 45 46 47 48 49 50
000
ASUS43 KBIS 290602
RWRND

NORTH DAKOTA REGIONAL WEATHER ROUNDUP
NATIONAL WEATHER SERVICE BISMARCK ND
100 AM CDT SUN MAY 29 2016

NOTE: "FAIR" INDICATES FEW OR NO CLOUDS BELOW 12,000 FEET WITH NO
SIGNIFICANT WEATHER AND/OR OBSTRUCTIONS TO VISIBILITY.


NDZ001>003-009>011-017-290700-
NORTHWEST NORTH DAKOTA

CITY           SKY/WX    TMP DP  RH WIND       PRES   REMARKS
WILLISTON      FOG       48  47  96 CALM      29.96S VSB 3/4
6HR MIN TEMP:  48; 6HR MAX TEMP:  63; 6HR PCP: TRACE;

MINOT          MOCLDY    57  55  93 CALM      29.93S
MINOT AFB      PTCLDY    55  54  96 S1        29.92S
$$

NDZ018>021-031>035-040>046-290700-
SOUTHWEST NORTH DAKOTA

CITY           SKY/WX    TMP DP  RH WIND       PRES   REMARKS
BISMARCK       CLEAR     54  53  97 W5        29.95S
6HR MIN TEMP:  51; 6HR MAX TEMP:  61; 6HR PCP:  0.14;

DICKINSON      CLEAR     44  42  93 SW3       29.97S
GARRISON         N/A     53  51  93 NW8       29.93F
6HR MIN TEMP:  53; 6HR MAX TEMP:  61; 6HR PCP:  0.03;

HETTINGER ARPT FOG       44  43  96 CALM      30.02S VSB 1/4
$$

NDZ004>008-012>016-024-026-027-054-290700-
NORTHEAST NORTH DAKOTA

CITY           SKY/WX    TMP DP  RH WIND       PRES   REMARKS
GRAND FORKS    CLOUDY    60  59  96 NW5       29.86R
GRND FRKS AFB  MOCLDY    60  60 100 N5        29.87R
DEVILS LAKE    CLOUDY    59  58  96 N8        29.92R
$$

NDZ022-023-025-028>030-036>039-047>053-290700-
SOUTHEAST NORTH DAKOTA

CITY           SKY/WX    TMP DP  RH WIND       PRES   REMARKS
FARGO          CLOUDY    62  59  90 NW7       29.85F
6HR MIN TEMP:  61; 6HR MAX TEMP:  66; 6HR PCP:  0.01;

JAMESTOWN      PTCLDY    58  56  93 E3        29.89S
$$





USA.gov is the U.S. government's official web portal to all federal, state and local government web resources and services.